Simultaneous Nadir Overpasses (SNOs) Predictions

Prediction of SNOs between METOP-B and TERRA Satellite Orbit:

Table of predicted SNOs for the next 14.0 days since TLE Epoch: 11/13/2020
Index Date (METOP-B) Time (METOP-B) Lat,Lon (METOP-B) SZA (METOP-B ) Date (TERRA) Time (TERRA) Lat,Lon (TERRA) SZA (TERRA ) Distance(km) Time Diff (sec)
1 11/15/2020 01:18:45 81.29,-153.16 102.85 11/15/2020 01:19:14 81.28,-153.04 102.88 2.07 29
2 11/15/2020 02:09:24 -81.30, 14.94 77.05 11/15/2020 02:08:40 -81.30, 14.91 77.07 0.72 44
3 11/17/2020 20:53:07 81.29, -86.25 103.59 11/17/2020 20:53:28 81.30, -86.36 103.59 1.93 21
4 11/17/2020 21:43:48 -81.29, 81.06 76.41 11/17/2020 21:42:55 -81.29, 81.23 76.42 2.80 53
5 11/20/2020 16:27:30 81.29, -20.14 104.17 11/20/2020 16:27:42 81.29, -20.10 104.18 0.70 12
6 11/20/2020 17:18:10 -81.29, 147.55 75.78 11/20/2020 17:17:09 -81.29, 147.51 75.82 1.18 61
7 11/23/2020 12:01:53 81.29, 46.33 104.75 11/23/2020 12:01:56 81.30, 46.49 104.78 2.77 3
8 11/23/2020 12:52:33 -81.30,-145.98 75.20 11/23/2020 12:51:23 -81.30,-145.87 75.22 1.84 70
9 11/26/2020 06:45:36 -81.29, -54.82 74.77 11/26/2020 06:46:45 -81.28, -54.97 74.75 2.62 69
